sat.trackr.live / text

‹ back to catalog

STARLINK-35561

NORAD 66105 · 2025-236V

PAYLOAD ACTIVE UNKNOWN

§ Identity

Operator
Country
US
Launch date
2025-10-19
Launch site
AFWTR
Launch vehicle
Mass (kg)
RCS (m²)

Purposes: comms

External: N2YO · Heavens-Above · Gunter

§ Orbital elements

Epoch: 2026-09-20T07:11:31.762752Z

Period
93.85 min
Inclination
53.1592°
Eccentricity
0.0001309
Mean motion
15.34412515 rev/d
Perigee alt
461.8 km
Apogee alt
463.6 km
Semi-major
6,840.8 km
B*
8.0755e-4
RAAN
276.8536°
Arg perigee
67.2907°
Mean anomaly
292.8234°
Rev number
5,272

§ Raw data

STARLINK-355611 66105U 25236V   26263.29967318  .00027017  00000+0  80755-3 0  99942 66105  53.1592 276.8536 0001309  67.2907 292.8234 15.34412515 52723

JSON: /api/v1/satellites/66105 · /tle

For live sub-satellite position, see the globe view (requires WebGL).

§ Visibility from observer

Set your observer location to see the next 7 days of passes ≥ 10°. The values pass through the URL so the page stays shareable.

No JS? Fill the form by hand. The geolocation button needs JavaScript.